Location: Street
(51.1247°N, 2.7429°W)
Time: 09:47:50
(UTC+01:00)

UWE-3 - Pass Details

Date: 04 April 2023
Orbit: 576 x 669 km, 97.7° (Epoch: 02 June)

Event Time Altitude Azimuth Distance (km) Brightness Sun altitude
Rises 03:27:50 0° 21° (NNE) 2,973 ? -26.5°
Reaches altitude 10° 03:30:20 10° 33° (NNE) 2,041 ? -26.2°
Maximum altitude 03:34:13 29° 94° (E) 1,151 ? -25.9°
Enters shadow 03:35:23 26° 122° (ESE) 1,248 ? -25.7°
